TimeEST,TemperatureF,Dew PointF,Humidity,Sea Level PressureIn,VisibilityMPH,Wind Direction,Wind SpeedMPH,Gust SpeedMPH,PrecipitationIn,Events,Conditions,WindDirDegrees,DateUTC
12:25 AM,46.4,46.4,100,30.00,5.0,Variable,3.5,-,0.02,Rain,Light Rain,0,2013-01-17 05:25:00
12:51 AM,46.4,44.6,93,29.99,8.0,Variable,3.5,-,0.02,Rain,Light Rain,0,2013-01-17 05:51:00
12:53 AM,46.0,45.0,96,29.98,8.0,Variable,3.5,-,0.02,Rain,Light Rain,0,2013-01-17 05:53:00
1:53 AM,46.0,45.0,96,29.97,5.0,NNW,3.5,-,0.04,Rain,Light Rain,330,2013-01-17 06:53:00
2:53 AM,46.0,45.0,96,29.95,3.0,Calm,Calm,-,0.04,Rain,Rain,0,2013-01-17 07:53:00
3:53 AM,45.0,45.0,100,29.93,10.0,NNW,3.5,-,0.03,Rain,Light Rain,340,2013-01-17 08:53:00
4:53 AM,45.0,45.0,100,29.90,4.0,Calm,Calm,-,0.02,,Overcast,0,2013-01-17 09:53:00
5:26 AM,44.6,44.6,100,29.90,2.0,Calm,Calm,-,0.01,,Overcast,0,2013-01-17 10:26:00
5:34 AM,44.6,44.6,100,29.90,3.0,Calm,Calm,-,0.01,,Overcast,0,2013-01-17 10:34:00
5:53 AM,45.0,45.0,100,29.88,3.0,North,3.5,-,0.02,Rain,Light Rain,360,2013-01-17 10:53:00
6:34 AM,44.6,44.6,100,29.89,2.5,Calm,Calm,-,0.01,Rain,Light Rain,0,2013-01-17 11:34:00
7:07 AM,44.6,44.6,100,29.89,3.0,Variable,3.5,-,0.02,Rain,Light Rain,0,2013-01-17 12:07:00
7:25 AM,44.6,44.6,100,29.88,5.0,North,4.6,-,0.03,Rain,Light Rain,10,2013-01-17 12:25:00
7:53 AM,45.0,44.1,97,29.88,4.0,NNW,4.6,-,0.05,Rain,Light Rain,340,2013-01-17 12:53:00
8:53 AM,44.1,44.1,100,29.86,2.5,Variable,3.5,-,0.06,Rain,Rain,0,2013-01-17 13:53:00
9:29 AM,44.6,44.6,100,29.88,1.8,NNW,3.5,-,0.08,Rain,Light Rain,340,2013-01-17 14:29:00
9:36 AM,44.6,44.6,100,29.88,3.0,Calm,Calm,-,0.08,Rain,Light Rain,0,2013-01-17 14:36:00
9:53 AM,44.1,43.0,96,29.87,3.0,Variable,4.6,-,0.10,Rain,Rain,0,2013-01-17 14:53:00
10:02 AM,44.6,42.8,93,29.86,2.5,North,9.2,-,0.02,Rain,Rain,360,2013-01-17 15:02:00
10:09 AM,44.6,42.8,93,29.85,4.0,NNE,6.9,-,0.02,Rain,Light Rain,20,2013-01-17 15:09:00
10:53 AM,44.1,43.0,96,29.81,10.0,NNE,5.8,-,0.02,,Overcast,20,2013-01-17 15:53:00
11:53 AM,45.0,44.1,97,29.76,10.0,East,3.5,-,N/A,,Overcast,90,2013-01-17 16:53:00
12:46 PM,46.4,44.6,93,29.75,1.8,Calm,Calm,-,N/A,,Overcast,0,2013-01-17 17:46:00
12:53 PM,46.0,46.0,100,29.74,1.0,Calm,Calm,-,0.00,Rain,Light Rain,0,2013-01-17 17:53:00
1:24 PM,44.6,42.8,93,29.78,2.0,Variable,6.9,21.9,0.07,Rain,Light Rain,0,2013-01-17 18:24:00
1:32 PM,44.6,42.8,93,29.78,2.5,Variable,6.9,-,0.07,Rain,Light Rain,0,2013-01-17 18:32:00
1:50 PM,42.8,42.8,100,29.78,1.8,SSW,6.9,-,0.09,Rain,Light Rain,200,2013-01-17 18:50:00
1:53 PM,43.0,42.1,97,29.77,2.0,South,6.9,-,0.09,Rain,Light Rain,190,2013-01-17 18:53:00
2:08 PM,44.6,42.8,93,29.77,4.0,Variable,4.6,-,0.00,Rain,Light Rain,0,2013-01-17 19:08:00
2:32 PM,42.8,42.8,100,29.76,9.0,Variable,3.5,-,0.01,Rain,Light Rain,0,2013-01-17 19:32:00
2:51 PM,42.8,41.0,93,29.78,10.0,Variable,3.5,-,0.01,,Overcast,0,2013-01-17 19:51:00
2:53 PM,42.1,41.0,96,29.77,10.0,Calm,Calm,-,0.01,,Overcast,0,2013-01-17 19:53:00
3:39 PM,42.8,41.0,93,29.80,1.8,Variable,3.5,-,0.01,Rain,Light Rain,0,2013-01-17 20:39:00
3:53 PM,41.0,39.9,96,29.81,2.0,Variable,5.8,-,0.02,Rain,Light Rain,0,2013-01-17 20:53:00
4:01 PM,41.0,39.2,93,29.82,2.0,Calm,Calm,-,0.01,Rain,Light Rain,0,2013-01-17 21:01:00
4:49 PM,41.0,37.4,87,29.88,8.0,Variable,5.8,-,0.03,,Overcast,0,2013-01-17 21:49:00
4:53 PM,41.0,37.9,89,29.88,4.0,NW,8.1,-,0.03,Rain,Light Rain,320,2013-01-17 21:53:00
5:02 PM,39.2,37.4,93,29.90,1.8,Variable,6.9,-,0.01,Rain,Light Rain,0,2013-01-17 22:02:00
5:19 PM,39.2,39.2,100,29.92,2.0,Variable,4.6,-,0.03,Rain,Light Rain,0,2013-01-17 22:19:00
5:53 PM,37.0,35.1,93,29.98,4.0,Variable,6.9,26.5,0.09,Rain,Rain,0,2013-01-17 22:53:00
6:53 PM,37.0,36.0,96,30.08,10.0,NNW,12.7,21.9,0.02,,Overcast,340,2013-01-17 23:53:00
7:53 PM,39.0,35.1,86,30.13,10.0,North,15.0,26.5,0.00,,Overcast,350,2013-01-18 00:53:00
8:00 PM,39.2,35.6,87,30.13,10.0,North,11.5,26.5,N/A,,Overcast,350,2013-01-18 01:00:00
8:30 PM,39.2,33.8,81,30.19,10.0,Variable,6.9,19.6,N/A,,Overcast,0,2013-01-18 01:30:00
8:53 PM,39.9,33.1,77,30.20,10.0,North,12.7,19.6,N/A,,Mostly Cloudy,350,2013-01-18 01:53:00
9:53 PM,37.9,30.9,76,30.23,10.0,North,9.2,-,N/A,,Clear,350,2013-01-18 02:53:00
10:53 PM,37.0,30.0,76,30.28,10.0,NNW,5.8,-,N/A,,Clear,340,2013-01-18 03:53:00
11:53 PM,36.0,30.0,79,30.32,10.0,Variable,3.5,-,N/A,,Clear,0,2013-01-18 04:53:00